This is the latest recevied weather packets stored in our database for station/object W4DEX-2. If no packets are shown the sender has not sent any weather packets the latest 1 day(s).
| Time | Temp. | Humidity | Pressure | Rain* | Wind** | Luminosity | Snow |
|---|---|---|---|---|---|---|---|
| 1777989602 | 19.44° C | 60% | 1016.4 hPa | 0 mm | 5.36 m/s, 169° | - | - |
| 1777989303 | 19.44° C | 60% | 1016.5 hPa | 0 mm | 4.92 m/s, 170° | - | - |
| 1777988702 | 18.33° C | 63% | 1016.4 hPa | 0 mm | 5.81 m/s, 187° | - | - |
| 1777988402 | 17.78° C | 64% | 1016.4 hPa | 0 mm | 4.92 m/s, 180° | - | - |
| 1777988102 | 17.78° C | 65% | 1016.4 hPa | 0 mm | 4.47 m/s, 170° | - | - |
| 1777987802 | 17.78° C | 65% | 1016.4 hPa | 0 mm | 5.81 m/s, 165° | - | - |
| 1777987202 | 17.22° C | 67% | 1016.4 hPa | 0 mm | 4.47 m/s, 181° | - | - |
| 1777986902 | 17.22° C | 67% | 1016.5 hPa | 0 mm | 4.02 m/s, 181° | - | - |
| 1777986603 | 16.67° C | 68% | 1016.5 hPa | 0 mm | 4.92 m/s, 180° | - | - |
| 1777986002 | 16.11° C | 71% | 1016.5 hPa | 0 mm | 5.81 m/s, 179° | - | - |
| 1777985702 | 15.56° C | 71% | 1016.6 hPa | 0 mm | 5.36 m/s, 178° | - | - |
| 1777985402 | 15° C | 72% | 1016.4 hPa | 0 mm | 4.47 m/s, 181° | - | - |
| 1777985102 | 15° C | 72% | 1016.5 hPa | 0 mm | 4.92 m/s, 178° | - | - |
| 1777984802 | 15° C | 72% | 1016.4 hPa | 0 mm | 3.58 m/s, 175° | - | - |
| 1777983902 | 13.89° C | 74% | 1016.2 hPa | 0 mm | 4.47 m/s, 178° | - | - |
| 1777983002 | 13.33° C | 76% | 1016 hPa | 0 mm | 5.36 m/s, 179° | - | - |
| 1777982702 | 12.78° C | 76% | 1016.1 hPa | 0 mm | 5.36 m/s, 174° | - | - |
| 1777981802 | 12.78° C | 78% | 1016.1 hPa | 0 mm | 5.36 m/s, 176° | - | - |
| 1777981502 | 12.22° C | 78% | 1016 hPa | 0 mm | 5.36 m/s, 173° | - | - |
| 1777980602 | 12.22° C | 78% | 1016 hPa | 0 mm | 5.36 m/s, 177° | - | - |
| 1777980302 | 12.22° C | 78% | 1016 hPa | 0 mm | 5.36 m/s, 171° | - | - |
| 1777980003 | 12.22° C | 78% | 1016.1 hPa | 0 mm | 5.81 m/s, 178° | - | - |
| 1777979702 | 12.22° C | 77% | 1015.9 hPa | 0 mm | 5.36 m/s, 172° | - | - |
| 1777979402 | 12.22° C | 77% | 1015.9 hPa | 0 mm | 5.36 m/s, 178° | - | - |
| 1777979102 | 12.22° C | 78% | 1015.9 hPa | 0 mm | 5.36 m/s, 176° | - | - |
* Rain latest hour (hover to see other rain measurements)
** Current wind speed in m/s (hover to see current wind gust speed)